Погода в Центральном

Россия / Челябинская область     53°03′23″N   60°42′52″E
темп.,
°C
ветер,
м/с
пор.,
м/с
влажн.,
%
обл.,
%
осадки,
мм/ч
давл.,
гПа
погр.,
м
27 сентября, пн
пн2723:00+10всв81347100 0.0 1008888
02:00+8св91345100 0.0 1009837
05:00+6св81240100 0.1 1009754
08:00+4св91346100 0.6 1009889
11:00+1св81290100 2.8 1011799
14:00+2св71297100 1.8 1011597
17:00+1св71597100 3.1 1012485
20:00+1всв81597100 0.5 1012570
28 сентября, вт
вт2823:00+1всв71497100 1.3 1013529
02:00+1св71397100 1.0 1013521
05:00+1св71498100 2.8 1013653
08:000св81598100 1.9 1014674
11:00+1ссв81698100 3.4 1014715
14:00+1ссв81498100 1.2 1015822
17:00+2ссв91598100 2.2 1016910
20:00+2ссв91598100 0.5 1018969
29 сентября, ср
ср2923:00+2ссв91597100 0.7 1018952
02:00+2ссв8138198 0.1 1019758
05:000с7148692 0.1 1020532
08:00+1с7139196 0.0 1021578
11:00+3ссв8118299 0.0 1022876
14:00+5св7967100 0.3 10221376
17:00+5ссв6971100 0.6 10231097
20:00+4ссв51177100 0.2 1024549
30 сентября, чт
чт3023:00+3ссв5118098 0.2 1026356
02:00+3с4984100 0.0 1026257
05:00+1с4987100 0.0 1027208
08:00+1с488466 0.0 1028278
11:00+4ссв566848 0.0 1028741
14:00+7ссв565298 0.1 10271710
17:00+7с565360 0.1 10271455
20:00+3сз487627 0.0 1028176
1 октября, пт
пт123:00+2сз477917 0.0 1028137
02:00+1сз47805 0.0 1028131
05:000сз37825 0.0 1028119
08:00+1сз36805 0.0 1028150
11:00+6зсз4456100 0.0 1027802
14:00+8сз5552100 0.0 10261070
17:00+6сз6779100 0.0 1026814
20:00+6сз5885100 0.1 1027773